User: anonymous   Login
Location: Fort Wayne
(41.1310°N, 85.1290°W)
Time: 21:49:28
(UTC-05:00)
Language:

Helios 1B - Orbit

View from above orbital plane
View from above orbital plane
View from above satellite
View from above satellite

Ground track
Ground track

The orbit data is extracted from the following two-line orbital elements,

1 25977U 99064A   17051.17298349  .00000162  00000-0  27183-4 0  9999
2 25977  98.1407 160.6150 0000629  27.1532 332.9713 14.82216061926676
Epoch (UTC): 20 February 2017 04:09:05
Eccentricity: 0.0000629
inclination: 98.1407°
perigee height: 622 km
apogee height: 623 km
right ascension of ascending node: 160.6150°
argument of perigee: 27.1532°
revolutions per day: 14.82216061
mean anomaly at epoch: 332.9713°
orbit number at epoch: 92667

The dashed part of the orbit path shows where the satellite is in the earth's shadow,  

DLR